Погода в Рас-эль-Хайме

Объединённые Арабские Эмираты     25°48′18″N   55°58′21″E
темп.,
°C
ветер,
м/с
пор.,
м/с
влажн.,
%
обл.,
%
осадки,
мм/ч
давл.,
гПа
погр.,
м
15 апреля, чт
чт1501:00+28ссв2226100 0.0 100811
04:00+26сз113790 0.0 100911
07:00+29юз332775 0.0 101169
10:00+34з4521100 0.0 10111049
13:00+34з772221 0.0 10101303
16:00+31з46325 0.0 1008767
19:00+27ююз124578 0.0 1009106
22:00+26ююв224486 0.0 101020
16 апреля, пт
пт1601:00+25ююв2249100 0.0 100922
04:00+23ююв345240 0.0 100939
07:00+24ю455421 0.0 1010162
10:00+30ююз552947 0.0 1011785
13:00+31з663088 0.0 1010938
16:00+30з553096 0.0 1009793
19:00+25юз3355100 0.0 1010198
22:00+22ю2369100 0.0 1012114
17 апреля, сб
сб1701:00+21ююв347199 0.0 101183
04:00+21ююв336670 0.0 101052
07:00+22ю34605 0.0 1012147
10:00+28зюз3327100 0.0 1013720
13:00+30з652782 0.0 1012982
16:00+29з4427100 0.0 1011812
19:00+23зюз115176 0.0 101228
22:00+22ююз2261100 0.0 101440
18 апреля, вс
вс1801:00+22ююв3457100 0.0 101247
04:00+21ююв2346100 0.0 101230
07:00+23ююв2339100 0.0 101497
10:00+28зюз4324100 0.0 1015745
13:00+30зсз5423100 0.0 10131048
16:00+29з4425100 0.0 1012734
19:00+23зюз2250100 0.0 101338
22:00+23ююв2249100 0.0 101338
19 апреля, пн
пн1901:00+22ююв335232 0.0 101238
04:00+22ююв33425 0.0 101130
07:00+23ююв34360 0.0 1012137
10:00+29зюз34270 0.0 1012869
13:00+31з57230 0.0 10101071
16:00+30з45250 0.0 1008711
19:00+24зюз11415 0.0 100912
22:00+23ююз11445 0.0 100913